period_start,C,m1,H,J0,J1,J2,J3,J4,J5,JA,JB,JC,JD,JJ,JK,JN,#
2017-07-26 00:01:51,0.01,0.16,0.00,25.20,29.40,31.90,13.68,44.63,1007.34,2024.00,3414.87,3040.99,3487.72,599.87,586.07,4.79,0000 0000 0000 0000 000000
2017-07-26 00:06:52,0.02,0.16,0.00,25.19,29.38,31.90,13.72,44.55,1007.34,2024.03,3414.22,3040.95,3487.17,600.06,586.36,4.84,0000 0000 0000 0000 000000
2017-07-26 00:11:54,0.05,0.16,0.00,25.17,29.37,31.88,13.66,44.71,1007.35,2024.03,3413.39,3040.15,3486.78,600.30,586.66,4.89,0000 0000 0000 0000 000000
2017-07-26 00:16:55,0.04,0.16,0.00,25.17,29.35,31.87,13.69,44.63,1007.35,2024.06,3412.18,3039.70,3485.98,599.59,586.03,4.94,0000 0000 0000 0000 000000
2017-07-26 00:21:56,0.04,0.16,0.00,25.15,29.34,31.84,13.59,44.42,1007.37,2024.11,3411.59,3039.04,3485.21,599.57,585.98,4.99,0000 0000 0000 0000 000000
2017-07-26 00:26:58,0.05,0.17,0.00,25.14,29.32,31.84,13.62,44.51,1007.40,2024.14,3410.40,3038.46,3484.58,599.86,586.27,5.04,0000 0000 0000 0000 000000
2017-07-26 00:31:59,0.12,0.17,0.00,25.13,29.31,31.82,13.63,44.73,1007.37,2024.47,3408.43,3037.07,3482.94,599.77,586.16,5.09,0000 0000 0000 0000 000000
2017-07-26 00:37:00,0.05,0.18,0.00,25.12,29.30,31.80,13.74,44.73,1007.36,2024.61,3407.16,3036.11,3482.03,599.92,586.25,5.14,0000 0000 0000 0000 000000
2017-07-26 00:42:01,0.04,0.18,0.00,25.12,29.28,31.79,13.70,44.74,1007.35,2024.56,3406.29,3035.75,3481.55,600.43,586.79,5.19,0000 0000 0000 0000 000000
2017-07-26 00:47:03,0.04,0.18,0.00,25.10,29.27,31.78,13.80,45.05,1007.36,2024.60,3405.03,3035.03,3480.93,600.49,586.68,5.24,0000 0000 0000 0000 000000
2017-07-26 00:52:04,0.02,0.18,0.00,25.10,29.25,31.76,13.68,45.02,1007.35,2024.76,3404.91,3035.00,3480.41,600.15,586.67,5.29,0000 0000 0000 0000 000000
2017-07-26 00:57:05,0.02,0.18,0.00,25.08,29.25,31.75,13.74,45.07,1007.35,2024.93,3404.69,3034.99,3480.12,600.05,586.55,5.34,0000 0000 0000 0000 000000
2017-07-26 01:02:07,0.01,0.18,0.00,25.07,29.22,31.75,13.73,45.09,1007.34,2024.94,3404.14,3034.96,3480.01,600.32,586.72,5.40,0000 0000 0000 0000 000000
2017-07-26 01:07:08,0.02,0.18,0.00,25.06,29.22,31.72,13.71,45.34,1007.34,2024.95,3403.92,3034.29,3479.97,600.01,586.51,5.45,0000 0000 0000 0000 000000
2017-07-26 01:12:09,0.02,0.19,0.00,25.05,29.20,31.71,13.70,45.17,1007.34,2024.98,3403.13,3034.01,3479.50,600.32,586.83,5.50,0000 0000 0000 0000 000000
2017-07-26 01:17:11,0.00,0.19,0.00,25.05,29.19,31.70,13.67,44.79,1007.34,2024.99,3403.00,3034.00,3479.07,600.21,586.75,5.55,0000 0000 0000 0000 000000
2017-07-26 01:22:12,0.00,0.19,0.00,25.05,29.17,31.68,13.74,45.15,1007.34,2024.99,3403.00,3034.00,3479.03,600.23,586.60,5.60,0000 0000 0000 0000 000000
2017-07-26 01:27:13,0.00,0.19,0.00,25.04,29.17,31.67,13.70,45.26,1007.34,2024.99,3402.98,3034.00,3479.00,600.15,586.64,5.65,0000 0000 0000 0000 000000
2017-07-26 01:32:14,0.00,0.19,0.00,25.03,29.15,31.64,13.72,45.06,1007.34,2024.99,3402.97,3034.00,3479.00,599.69,586.23,5.70,0000 0000 0000 0000 000000
2017-07-26 01:37:15,0.00,0.19,0.00,25.02,29.15,31.64,13.69,45.18,1007.34,2024.99,3402.71,3033.99,3479.00,599.87,586.30,5.75,0000 0000 0000 0000 000000
2017-07-26 01:42:16,0.00,0.19,0.00,25.03,29.13,31.63,13.74,45.42,1007.34,2024.99,3402.40,3033.98,3478.99,600.04,586.68,5.80,0000 0000 0000 0000 000000
2017-07-26 01:47:18,0.00,0.19,0.00,25.02,29.12,31.61,13.76,45.39,1007.34,2024.99,3402.11,3033.99,3478.98,600.27,586.79,5.85,0000 0000 0000 0000 000000
2017-07-26 01:52:19,0.00,0.19,0.00,25.00,29.11,31.62,13.74,45.52,1007.34,2024.99,3402.05,3033.98,3478.99,600.33,586.86,5.90,0000 0000 0000 0000 000000
2017-07-26 01:57:20,0.00,0.19,0.00,25.00,29.10,31.61,13.72,45.42,1007.34,2025.01,3402.02,3033.98,3478.99,600.28,586.82,5.95,0000 0000 0000 0000 000000
2017-07-26 02:02:22,0.02,0.19,0.00,25.00,29.10,31.60,13.71,45.27,1007.34,2025.14,3402.03,3033.99,3478.99,599.88,586.46,6.00,0000 0000 0000 0000 000000
2017-07-26 02:07:23,0.01,0.19,0.00,25.00,29.08,31.57,13.73,45.15,1007.34,2025.30,3402.06,3033.99,3478.99,599.97,586.77,6.05,0000 0000 0000 0000 000000
2017-07-26 02:12:24,0.01,0.19,0.00,25.00,29.07,31.57,13.72,45.02,1007.34,2025.35,3402.10,3033.99,3478.99,599.62,586.23,6.10,0000 0000 0000 0000 000000
2017-07-26 02:17:26,-0.01,0.19,0.00,25.00,29.07,31.57,13.71,45.19,1007.34,2025.45,3402.27,3033.99,3478.99,600.03,586.72,6.15,0000 0000 0000 0000 000000
2017-07-26 02:22:27,0.04,0.19,0.00,25.00,29.05,31.55,13.70,45.17,1007.35,2025.56,3402.03,3033.99,3478.99,600.01,586.66,6.20,0000 0000 0000 0000 000000
2017-07-26 02:27:28,0.00,0.19,0.00,24.99,29.05,31.54,13.65,44.96,1007.34,2025.82,3402.00,3033.99,3478.97,599.97,586.68,6.25,0000 0000 0000 0000 000000
2017-07-26 02:32:30,0.01,0.19,0.00,25.00,29.04,31.54,13.70,44.92,1007.34,2025.93,3401.99,3033.97,3478.92,600.21,586.85,6.30,0000 0000 0000 0000 000000
2017-07-26 02:37:31,0.01,0.19,0.00,24.99,29.03,31.54,13.69,45.12,1007.34,2025.96,3401.96,3033.94,3478.76,600.05,586.71,6.35,0000 0000 0000 0000 000000
2017-07-26 02:42:32,0.01,0.19,0.00,24.99,29.02,31.53,13.67,45.08,1007.35,2025.96,3401.78,3033.85,3478.48,599.90,586.47,6.40,0000 0000 0000 0000 000000
2017-07-26 02:47:34,0.03,0.19,0.00,24.98,29.02,31.52,13.66,44.94,1007.36,2025.95,3401.05,3033.21,3478.03,599.69,586.32,6.45,0000 0000 0000 0000 000000
2017-07-26 02:52:35,0.00,0.19,0.00,24.98,29.02,31.51,13.69,44.97,1007.35,2025.98,3401.00,3033.10,3478.00,600.16,586.75,6.50,0000 0000 0000 0000 000000
2017-07-26 02:57:36,0.00,0.20,0.00,25.00,29.01,31.50,13.72,45.05,1007.34,2025.99,3400.89,3033.02,3478.00,600.24,586.90,6.55,0000 0000 0000 0000 000000
2017-07-26 03:02:38,0.00,0.20,0.00,25.00,29.00,31.50,13.74,45.02,1007.34,2025.98,3400.66,3033.01,3477.99,600.07,586.52,6.60,0000 0000 0000 0000 000000
2017-07-26 03:07:39,0.01,0.20,0.00,24.99,29.00,31.50,13.68,45.26,1007.34,2025.97,3400.29,3033.00,3477.97,600.20,586.66,6.65,0000 0000 0000 0000 000000
2017-07-26 03:12:40,0.00,0.20,0.00,24.99,29.00,31.49,13.74,45.46,1007.34,2025.98,3400.01,3033.00,3477.77,599.97,586.60,6.70,0000 0000 0000 0000 000000
2017-07-26 03:17:42,0.00,0.20,0.00,24.98,29.00,31.49,13.75,45.17,1007.35,2025.98,3400.00,3032.99,3477.70,599.93,586.51,6.75,0000 0000 0000 0000 000000
2017-07-26 03:22:43,0.00,0.20,0.00,24.99,29.00,31.49,13.66,45.26,1007.35,2025.98,3400.01,3032.99,3477.79,600.05,586.90,6.80,0000 0000 0000 0000 000000
2017-07-26 03:27:44,0.00,0.20,0.00,24.98,28.99,31.48,13.72,45.16,1007.36,2025.99,3400.00,3032.99,3477.80,599.98,586.94,6.85,0000 0000 0000 0000 000000
2017-07-26 03:32:45,0.00,0.20,0.00,25.00,28.98,31.48,13.71,45.27,1007.40,2025.97,3400.00,3032.99,3477.52,600.32,586.99,6.90,0000 0000 0000 0000 000000
2017-07-26 03:37:47,0.00,0.20,0.00,25.00,28.97,31.46,13.65,45.34,1007.38,2025.98,3400.00,3032.99,3477.27,599.95,586.46,6.95,0000 0000 0000 0000 000000
2017-07-26 03:42:48,0.00,0.20,0.00,24.98,28.97,31.46,13.72,45.49,1007.36,2025.97,3399.99,3032.98,3477.14,600.48,587.22,7.00,0000 0000 0000 0000 000000
2017-07-26 03:47:49,0.00,0.20,0.00,25.00,28.97,31.47,13.63,45.10,1007.36,2025.98,3399.98,3032.99,3477.05,599.77,586.37,7.05,0000 0000 0000 0000 000000
2017-07-26 03:52:50,0.00,0.20,0.00,25.00,28.97,31.46,13.66,45.27,1007.37,2025.99,3399.96,3032.97,3477.01,599.88,586.54,7.10,0000 0000 0000 0000 000000
2017-07-26 03:57:52,-0.00,0.20,0.00,25.00,28.97,31.45,13.67,45.16,1007.36,2025.99,3399.98,3032.99,3477.10,600.03,586.80,7.15,0000 0000 0000 0000 000000
2017-07-26 04:02:53,0.01,0.20,0.00,25.00,28.95,31.45,13.63,45.13,1007.39,2025.99,3399.73,3032.96,3477.01,599.46,586.33,7.20,0000 0000 0000 0000 000000
2017-07-26 04:07:54,0.01,0.20,0.00,25.00,28.95,31.44,13.74,45.03,1007.55,2025.99,3399.09,3032.88,3477.00,600.11,586.87,7.25,0000 0000 0000 0000 000000
2017-07-26 04:12:55,0.01,0.20,0.00,25.00,28.95,31.44,13.70,45.16,1007.60,2025.99,3399.00,3032.57,3477.00,599.98,586.64,7.30,0000 0000 0000 0000 000000
2017-07-26 04:17:56,0.01,0.20,0.00,25.01,28.95,31.43,13.68,45.05,1007.68,2025.99,3398.80,3032.09,3476.92,600.15,586.95,7.35,0000 0000 0000 0000 000000
2017-07-26 04:22:58,0.02,0.20,0.00,25.01,28.95,31.44,13.65,45.31,1007.73,2025.99,3398.10,3032.01,3476.50,599.76,586.64,7.40,0000 0000 0000 0000 000000
2017-07-26 04:27:59,0.00,0.20,0.00,25.02,28.95,31.44,13.73,45.05,1007.66,2025.99,3398.00,3032.00,3476.08,600.46,587.20,7.45,0000 0000 0000 0000 000000
2017-07-26 04:33:00,0.00,0.20,0.00,25.02,28.95,31.43,13.71,45.22,1007.60,2026.00,3398.00,3032.00,3476.05,600.07,586.81,7.50,0000 0000 0000 0000 000000
2017-07-26 04:38:02,0.00,0.20,0.00,25.02,28.95,31.44,13.66,45.02,1007.70,2026.00,3398.00,3032.00,3476.01,599.87,586.62,7.55,0000 0000 0000 0000 000000
2017-07-26 04:43:03,0.00,0.20,0.00,25.02,28.95,31.43,13.62,45.01,1007.76,2026.00,3397.99,3032.00,3476.00,599.67,586.54,7.60,0000 0000 0000 0000 000000
2017-07-26 04:48:04,0.00,0.20,0.00,25.02,28.95,31.44,13.64,44.79,1007.71,2026.00,3397.95,3031.99,3476.00,599.50,586.48,7.65,0000 0000 0000 0000 000000
2017-07-26 04:53:05,0.00,0.20,0.00,25.02,28.95,31.44,13.65,45.06,1007.75,2026.00,3397.77,3031.97,3475.99,599.83,586.66,7.71,0000 0000 0000 0000 000000
2017-07-26 04:58:07,-0.00,0.20,0.00,25.03,28.95,31.44,13.65,45.09,1007.79,2026.00,3397.79,3031.96,3475.98,599.96,586.75,7.76,0000 0000 0000 0000 000000
2017-07-26 05:03:08,0.01,0.20,0.00,25.05,28.95,31.43,13.62,44.82,1007.79,2026.00,3397.35,3031.96,3475.95,599.73,586.53,7.81,0000 0000 0000 0000 000000
2017-07-26 05:08:09,0.00,0.20,0.00,25.05,28.95,31.43,13.72,44.92,1007.76,2026.00,3397.13,3031.89,3475.78,600.00,586.87,7.86,0000 0000 0000 0000 000000
2017-07-26 05:13:11,0.01,0.20,0.00,25.05,28.95,31.43,13.59,44.92,1007.80,2026.00,3397.05,3031.70,3475.33,599.42,586.25,7.91,0000 0000 0000 0000 000000
2017-07-26 05:18:12,0.01,0.20,0.00,25.05,28.95,31.43,13.70,44.97,1007.83,2026.00,3397.02,3031.57,3475.15,600.11,586.93,7.96,0000 0000 0000 0000 000000
2017-07-26 05:23:13,0.00,0.20,0.00,25.05,28.95,31.44,13.65,44.92,1007.83,2026.00,3397.00,3031.28,3475.04,599.69,586.56,8.01,0000 0000 0000 0000 000000
2017-07-26 05:28:14,-0.00,0.20,0.00,25.06,28.95,31.43,13.62,44.88,1007.81,2026.00,3397.00,3031.34,3475.02,599.60,586.52,8.06,0000 0000 0000 0000 000000
2017-07-26 05:33:15,0.00,0.20,0.00,25.06,28.95,31.43,13.68,44.75,1007.82,2026.00,3397.00,3031.12,3475.00,599.70,586.42,8.11,0000 0000 0000 0000 000000
2017-07-26 05:38:17,0.00,0.20,0.00,25.07,28.95,31.44,13.75,44.94,1007.82,2026.00,3396.99,3031.07,3475.00,600.09,586.95,8.16,0000 0000 0000 0000 000000
2017-07-26 05:43:18,0.00,0.20,0.00,25.07,28.95,31.44,13.63,44.87,1007.83,2026.00,3396.97,3031.01,3474.99,599.78,586.61,8.21,0000 0000 0000 0000 000000
2017-07-26 05:48:20,0.00,0.20,0.00,25.07,28.95,31.45,13.75,45.03,1007.83,2026.00,3396.94,3031.01,3474.99,600.23,586.92,8.26,0000 0000 0000 0000 000000
2017-07-26 05:53:22,0.01,0.20,0.00,25.07,28.95,31.45,13.68,44.83,1007.83,2026.00,3396.53,3031.00,3474.93,600.05,586.78,8.31,0000 0000 0000 0000 000000
2017-07-26 05:58:23,0.00,0.20,0.00,25.07,28.95,31.45,13.67,44.86,1007.83,2026.00,3396.17,3031.00,3474.65,599.84,586.71,8.36,0000 0000 0000 0000 000000
2017-07-26 06:03:24,0.00,0.20,0.00,25.07,28.95,31.45,13.68,44.82,1007.85,2026.00,3396.01,3030.98,3474.19,599.80,586.60,8.41,0000 0000 0000 0000 000000
2017-07-26 06:08:26,0.00,0.20,0.00,25.07,28.97,31.46,13.63,44.87,1007.85,2026.00,3395.99,3030.94,3474.03,599.81,586.69,8.46,0000 0000 0000 0000 000000
2017-07-26 06:13:27,0.00,0.21,0.00,25.07,28.97,31.45,13.65,45.14,1007.85,2025.99,3395.98,3030.78,3474.00,599.97,586.79,8.51,0000 0000 0000 0000 000000
2017-07-26 06:18:29,0.01,0.21,0.00,25.07,28.97,31.46,13.73,44.88,1007.85,2025.99,3395.88,3030.46,3474.00,600.13,586.92,8.56,0000 0000 0000 0000 000000
2017-07-26 06:23:30,0.01,0.21,0.00,25.07,28.97,31.46,13.73,45.05,1007.84,2025.99,3395.62,3030.26,3474.00,600.78,587.45,8.61,0000 0000 0000 0000 000000
2017-07-26 06:28:31,0.01,0.21,0.00,25.08,28.97,31.46,13.71,44.96,1007.84,2025.99,3395.14,3030.03,3473.98,600.02,586.68,8.66,0000 0000 0000 0000 000000
2017-07-26 06:33:33,0.00,0.21,0.00,25.07,28.97,31.47,13.68,45.12,1007.85,2025.99,3395.01,3030.00,3473.68,599.90,586.67,8.71,0000 0000 0000 0000 000000
2017-07-26 06:38:34,0.01,0.21,0.00,25.07,28.97,31.46,13.74,45.03,1007.97,2025.99,3394.96,3030.00,3473.13,599.90,586.66,8.76,0000 0000 0000 0000 000000
2017-07-26 06:43:35,-0.00,0.21,0.00,25.08,28.97,31.46,13.70,45.09,1008.05,2025.99,3394.88,3029.98,3473.01,600.27,587.15,8.81,0000 0000 0000 0000 000000
2017-07-26 06:48:37,0.02,0.21,0.00,25.10,28.97,31.45,13.73,45.02,1008.25,2025.99,3394.32,3029.73,3472.93,600.18,587.12,8.86,0000 0000 0000 0000 000000
2017-07-26 06:53:38,0.03,0.21,0.00,25.08,28.97,31.47,13.70,44.86,1008.29,2025.99,3393.79,3029.02,3472.16,600.17,587.14,8.91,0000 0000 0000 0000 000000
2017-07-26 06:58:40,0.01,0.21,0.00,25.07,28.97,31.46,13.65,44.83,1008.19,2025.99,3393.06,3028.99,3472.00,600.04,587.09,8.96,0000 0000 0000 0000 000000
2017-07-26 07:03:41,0.01,0.21,0.00,25.07,28.97,31.46,13.62,45.01,1008.12,2025.99,3392.86,3028.78,3471.86,599.88,586.80,9.01,0000 0000 0000 0000 000000
2017-07-26 07:08:42,0.04,0.21,0.00,25.07,28.97,31.46,13.71,44.96,1007.88,2025.99,3392.09,3028.10,3471.12,599.71,586.53,9.06,0000 0000 0000 0000 000000
2017-07-26 07:13:44,0.00,0.21,0.00,25.07,28.97,31.46,13.73,44.88,1007.85,2025.99,3391.99,3028.00,3471.00,600.00,586.76,9.11,0000 0000 0000 0000 000000
2017-07-26 07:18:45,0.00,0.21,0.00,25.07,28.97,31.47,13.71,44.88,1008.05,2025.99,3391.96,3028.00,3470.99,600.04,586.95,9.16,0000 0000 0000 0000 000000
2017-07-26 07:23:46,0.01,0.21,0.00,25.07,28.97,31.47,13.74,44.76,1008.29,2025.99,3391.36,3027.99,3470.97,600.25,587.30,9.21,0000 0000 0000 0000 000000
2017-07-26 07:28:48,0.00,0.22,0.00,25.07,28.97,31.46,13.69,44.84,1008.29,2025.99,3391.09,3027.98,3470.93,600.01,587.07,9.26,0000 0000 0000 0000 000000
2017-07-26 07:33:49,0.00,0.22,0.00,25.07,28.97,31.46,13.68,45.12,1008.31,2025.99,3391.04,3027.99,3470.53,600.24,587.26,9.31,0000 0000 0000 0000 000000
2017-07-26 07:38:50,0.01,0.22,0.00,25.05,28.97,31.47,13.60,44.71,1008.30,2025.99,3391.04,3027.90,3470.20,599.89,586.90,9.36,0000 0000 0000 0000 000000
2017-07-26 07:43:51,0.01,0.22,0.00,25.05,28.97,31.47,13.68,44.92,1008.18,2025.99,3391.00,3027.60,3470.02,599.74,586.78,9.41,0000 0000 0000 0000 000000
2017-07-26 07:48:52,0.01,0.22,0.00,25.05,28.97,31.47,13.75,44.88,1008.13,2025.99,3391.00,3027.17,3470.00,600.20,587.25,9.46,0000 0000 0000 0000 000000
2017-07-26 07:53:53,0.00,0.22,0.00,25.05,28.96,31.48,13.59,44.83,1008.16,2025.99,3390.98,3027.04,3469.99,599.44,586.62,9.51,0000 0000 0000 0000 000000
2017-07-26 07:58:55,0.00,0.22,0.00,25.04,28.96,31.47,13.64,44.78,1008.27,2025.99,3390.81,3027.01,3469.97,599.66,586.78,9.56,0000 0000 0000 0000 000000
2017-07-26 08:03:56,0.01,0.22,0.00,25.04,28.95,31.47,13.62,44.77,1008.31,2025.98,3390.14,3027.00,3469.87,599.57,586.71,9.61,0000 0000 0000 0000 000000
2017-07-26 08:08:57,0.00,0.22,0.00,25.05,28.95,31.47,13.66,44.70,1008.31,2025.99,3390.02,3027.00,3469.55,599.48,586.59,9.66,0000 0000 0000 0000 000000
2017-07-26 08:13:59,0.00,0.22,0.00,25.03,28.95,31.47,13.75,44.67,1008.32,2025.99,3389.99,3026.99,3469.10,600.11,587.12,9.71,0000 0000 0000 0000 000000
2017-07-26 08:19:00,0.03,0.22,0.00,25.02,28.95,31.46,13.74,44.69,1008.32,2025.99,3389.34,3026.37,3468.99,600.15,587.30,9.76,0000 0000 0000 0000 000000
2017-07-26 08:24:02,0.00,0.22,0.00,25.00,28.95,31.47,13.65,44.69,1008.33,2025.99,3389.00,3026.07,3468.96,599.96,587.25,9.81,0000 0000 0000 0000 000000
2017-07-26 08:29:03,0.00,0.22,0.00,25.00,28.95,31.46,13.75,44.74,1008.33,2025.99,3389.00,3026.03,3468.92,600.05,587.28,9.86,0000 0000 0000 0000 000000
2017-07-26 08:34:04,0.01,0.22,0.00,25.00,28.94,31.46,13.68,44.61,1008.34,2025.99,3388.95,3026.00,3468.50,599.79,586.97,9.91,0000 0000 0000 0000 000000
2017-07-26 08:39:05,0.01,0.22,0.00,24.98,28.94,31.44,13.66,44.76,1008.54,2025.99,3388.70,3026.00,3468.19,599.89,587.35,9.96,0000 0000 0000 0000 000000
2017-07-26 08:44:06,0.01,0.22,0.00,24.98,28.92,31.45,13.71,44.70,1008.68,2025.99,3388.15,3026.00,3468.02,600.46,587.87,10.02,0000 0000 0000 0000 000000
2017-07-26 08:49:07,0.00,0.22,0.00,24.96,28.92,31.45,13.68,44.66,1008.63,2025.99,3388.00,3025.99,3468.00,600.07,587.51,10.07,0000 0000 0000 0000 000000
2017-07-26 08:54:08,0.00,0.22,0.00,24.95,28.92,31.43,13.73,44.66,1008.69,2025.99,3388.00,3025.97,3468.00,599.90,587.41,10.12,0000 0000 0000 0000 000000
2017-07-26 08:59:09,0.03,0.22,0.00,24.95,28.92,31.43,13.66,44.66,1008.76,2026.00,3387.74,3025.62,3467.79,599.29,586.98,10.17,0000 0000 0000 0000 000000
2017-07-26 09:04:10,0.04,0.23,0.00,24.94,28.92,31.44,13.80,44.69,1008.79,2026.00,3386.37,3024.83,3466.91,600.38,587.94,10.22,0000 0000 0000 0000 000000
2017-07-26 09:09:12,0.04,0.23,0.00,24.92,28.90,31.43,13.71,44.73,1008.80,2026.01,3385.64,3024.05,3466.03,600.06,587.72,10.27,0000 0000 0000 0000 000000
2017-07-26 09:14:13,0.23,0.24,0.00,24.91,28.90,31.42,13.71,44.76,1008.80,2026.00,3381.46,3020.58,3462.37,600.50,588.04,10.32,0000 0000 0000 0000 000000
2017-07-26 09:19:14,0.02,0.24,0.00,24.90,28.90,31.42,13.73,44.77,1008.80,2026.01,3380.49,3020.00,3461.55,599.76,587.55,10.37,0000 0000 0000 0000 000000
2017-07-26 09:24:15,0.00,0.24,0.00,24.90,28.90,31.41,13.71,44.70,1008.80,2026.01,3380.00,3019.88,3461.03,600.11,587.77,10.42,0000 0000 0000 0000 000000
2017-07-26 09:29:16,0.04,0.24,0.00,24.91,28.89,31.40,13.66,44.67,1008.80,2026.02,3379.43,3019.12,3460.65,599.40,587.11,10.47,0000 0000 0000 0000 000000
2017-07-26 09:34:18,0.00,0.24,0.00,24.90,28.87,31.40,13.74,44.65,1008.80,2026.00,3379.02,3019.00,3460.18,600.28,587.97,10.52,0000 0000 0000 0000 000000
2017-07-26 09:39:19,0.00,0.25,0.00,24.89,28.87,31.39,13.74,44.67,1008.80,2026.00,3378.87,3018.98,3460.01,600.37,587.99,10.57,0000 0000 0000 0000 000000
2017-07-26 09:44:20,0.04,0.25,0.00,24.87,28.87,31.38,13.68,44.60,1008.80,2026.01,3378.07,3018.32,3459.50,599.97,587.71,10.62,0000 0000 0000 0000 000000
2017-07-26 09:49:22,0.00,0.25,0.00,24.87,28.86,31.37,13.73,44.75,1008.80,2026.00,3378.00,3018.03,3459.05,600.00,587.75,10.67,0000 0000 0000 0000 000000
2017-07-26 09:54:23,-0.00,0.25,0.00,24.87,28.85,31.37,13.68,44.73,1008.80,2026.00,3377.98,3018.02,3459.06,599.60,587.20,10.72,0000 0000 0000 0000 000000
2017-07-26 09:59:24,0.01,0.25,0.00,24.87,28.85,31.37,13.73,44.75,1008.81,2026.00,3377.55,3018.00,3459.00,600.28,588.01,10.77,0000 0000 0000 0000 000000
2017-07-26 10:04:25,0.03,0.25,0.00,24.86,28.85,31.37,13.65,44.66,1008.81,2026.01,3376.84,3017.64,3458.65,599.55,587.33,10.82,0000 0000 0000 0000 000000
2017-07-26 10:09:27,0.03,0.25,0.00,24.84,28.84,31.35,13.73,44.72,1008.81,2026.03,3376.07,3017.03,3458.03,600.17,587.95,10.87,0000 0000 0000 0000 000000
2017-07-26 10:14:28,0.00,0.25,0.00,24.82,28.83,31.35,13.69,44.67,1008.81,2026.02,3376.00,3017.00,3457.99,599.93,587.73,10.92,0000 0000 0000 0000 000000
2017-07-26 10:19:29,0.00,0.25,0.00,24.82,28.82,31.34,13.70,44.72,1008.82,2026.03,3375.99,3017.00,3457.99,600.22,587.98,10.97,0000 0000 0000 0000 000000
2017-07-26 10:24:30,0.00,0.25,0.00,24.82,28.82,31.34,13.70,44.71,1008.82,2026.05,3375.99,3017.00,3457.99,599.78,587.62,11.02,0000 0000 0000 0000 000000
2017-07-26 10:29:32,0.00,0.25,0.00,24.82,28.82,31.33,13.75,44.92,1008.83,2026.05,3375.97,3017.00,3457.99,600.25,588.17,11.07,0000 0000 0000 0000 000000
2017-07-26 10:34:33,0.01,0.25,0.00,24.81,28.80,31.32,13.71,44.89,1008.86,2026.09,3375.95,3017.00,3457.98,599.90,587.88,11.12,0000 0000 0000 0000 000000
2017-07-26 10:39:34,0.01,0.25,0.00,24.80,28.80,31.32,13.83,44.88,1009.02,2026.12,3375.72,3017.00,3457.96,600.21,588.23,11.17,0000 0000 0000 0000 000000
2017-07-26 10:44:36,-0.02,0.25,0.00,24.78,28.80,31.32,13.72,44.58,1008.98,2026.11,3375.62,3017.00,3457.97,600.27,588.21,11.22,0000 0000 0000 0000 000000
2017-07-26 10:49:37,0.00,0.25,0.00,24.77,28.80,31.30,13.73,44.71,1008.90,2026.05,3375.51,3017.00,3457.89,599.91,587.87,11.27,0000 0000 0000 0000 000000
2017-07-26 10:54:38,-0.00,0.25,0.00,24.78,28.78,31.29,13.72,44.77,1009.06,2026.07,3375.49,3017.00,3457.90,600.11,588.12,11.32,0000 0000 0000 0000 000000
2017-07-26 10:59:40,0.02,0.25,0.00,24.76,28.77,31.29,13.78,44.72,1009.08,2026.28,3375.39,3017.00,3457.96,600.14,588.30,11.37,0000 0000 0000 0000 000000
2017-07-26 11:04:41,0.04,0.26,0.00,24.75,28.77,31.29,13.65,44.61,1008.93,2026.73,3375.13,3017.00,3457.94,600.00,588.15,11.42,0000 0000 0000 0000 000000
2017-07-26 11:09:42,0.00,0.26,0.00,24.74,28.76,31.28,13.71,44.73,1009.02,2026.70,3375.19,3017.00,3457.92,600.05,588.08,11.47,0000 0000 0000 0000 000000
2017-07-26 11:14:43,0.01,0.26,0.00,24.74,28.75,31.27,13.71,44.91,1009.10,2026.76,3375.04,3016.99,3457.82,599.98,588.12,11.52,0000 0000 0000 0000 000000
2017-07-26 11:19:45,0.01,0.26,0.00,24.72,28.75,31.27,13.71,44.67,1009.22,2026.92,3375.00,3016.98,3457.53,599.78,587.97,11.57,0000 0000 0000 0000 000000
2017-07-26 11:24:46,0.00,0.26,0.00,24.70,28.75,31.26,13.74,44.79,1009.24,2026.95,3375.00,3016.99,3457.41,599.96,588.29,11.62,0000 0000 0000 0000 000000
2017-07-26 11:29:47,0.00,0.26,0.00,24.70,28.73,31.26,13.69,44.86,1009.22,2026.94,3374.98,3016.99,3457.19,599.94,588.19,11.67,0000 0000 0000 0000 000000
2017-07-26 11:34:49,0.00,0.26,0.00,24.74,28.72,31.23,13.75,44.86,1009.26,2026.94,3374.95,3016.97,3457.08,600.11,588.35,11.72,0000 0000 0000 0000 000000
2017-07-26 11:39:50,0.00,0.26,0.00,24.72,28.72,31.24,13.71,44.83,1009.26,2026.95,3374.84,3016.95,3457.03,600.11,588.46,11.77,0000 0000 0000 0000 000000
2017-07-26 11:44:51,0.01,0.26,0.00,24.68,28.72,31.24,13.74,44.82,1009.28,2026.94,3374.42,3016.96,3457.02,599.86,588.30,11.82,0000 0000 0000 0000 000000
2017-07-26 11:49:53,0.01,0.26,0.00,24.66,28.70,31.24,13.67,44.95,1009.29,2026.95,3374.05,3016.86,3457.00,599.89,588.31,11.87,0000 0000 0000 0000 000000
2017-07-26 11:54:54,-0.00,0.26,0.00,24.67,28.70,31.22,13.66,44.92,1009.26,2026.96,3374.00,3016.75,3457.00,599.97,588.29,11.92,0000 0000 0000 0000 000000
2017-07-26 11:59:55,0.01,0.26,0.00,24.67,28.70,31.21,13.68,44.88,1009.27,2026.97,3374.00,3016.57,3457.00,600.06,588.44,11.97,0000 0000 0000 0000 000000
2017-07-26 12:04:56,0.02,0.26,0.00,24.65,28.69,31.20,13.77,45.05,1009.27,2026.98,3373.67,3016.09,3456.94,600.04,588.49,12.02,0000 0000 0000 0000 000000
2017-07-26 12:09:58,0.01,0.26,0.00,24.63,28.67,31.21,13.74,44.88,1009.28,2026.96,3373.05,3016.00,3456.40,600.02,588.50,12.07,0000 0000 0000 0000 000000
2017-07-26 12:14:59,0.00,0.26,0.00,24.65,28.67,31.19,13.78,45.05,1009.29,2026.98,3373.00,3016.00,3456.11,600.18,588.73,12.12,0000 0000 0000 0000 000000
2017-07-26 12:20:00,-0.00,0.26,0.00,24.66,28.67,31.19,13.65,44.91,1009.29,2026.97,3373.00,3016.00,3456.06,599.87,588.40,12.17,0000 0000 0000 0000 000000
2017-07-26 12:25:02,0.00,0.26,0.00,24.61,28.66,31.19,13.79,44.93,1009.29,2026.98,3372.98,3016.00,3456.03,600.35,588.82,12.22,0000 0000 0000 0000 000000
2017-07-26 12:30:03,0.01,0.26,0.00,24.57,28.65,31.19,13.74,45.00,1009.29,2026.99,3372.46,3015.98,3456.01,600.16,588.83,12.28,0000 0000 0000 0000 000000
2017-07-26 12:35:04,0.00,0.26,0.00,24.58,28.65,31.18,13.74,44.92,1009.29,2026.99,3372.06,3015.96,3456.00,599.91,588.58,12.33,0000 0000 0000 0000 000000
2017-07-26 12:40:05,0.01,0.26,0.00,24.61,28.65,31.16,13.82,45.06,1009.29,2026.99,3371.94,3015.56,3455.99,600.54,589.00,12.38,0000 0000 0000 0000 000000
2017-07-26 12:45:07,0.02,0.26,0.00,24.63,28.64,31.20,13.71,45.11,1009.29,2026.99,3371.41,3015.11,3455.88,599.94,588.48,12.43,0000 0000 0000 0000 000000
2017-07-26 12:50:08,0.01,0.26,0.00,24.69,28.63,31.22,13.77,45.11,1009.29,2026.99,3371.06,3015.03,3455.50,599.95,588.25,12.48,0000 0000 0000 0000 000000
2017-07-26 12:55:10,0.01,0.27,0.00,24.70,28.63,31.16,13.76,45.16,1009.29,2027.00,3371.00,3015.02,3455.16,600.26,588.53,12.53,0000 0000 0000 0000 000000
2017-07-26 13:00:11,0.01,0.27,0.00,24.72,28.65,31.13,13.79,45.29,1009.29,2027.00,3370.60,3014.94,3454.88,600.25,588.62,12.58,0000 0000 0000 0000 000000